TimeEST,TemperatureF,Dew PointF,Humidity,Sea Level PressureIn,VisibilityMPH,Wind Direction,Wind SpeedMPH,Gust SpeedMPH,PrecipitationIn,Events,Conditions,WindDirDegrees,DateUTC
12:15 AM,37.2,25.5,63,30.35,10.0,Calm,Calm,-,N/A,,Clear,0,2013-11-04 05:15:00
12:35 AM,36.5,25.5,64,30.37,10.0,NNW,3.5,-,N/A,,Clear,330,2013-11-04 05:35:00
12:55 AM,37.6,25.3,61,30.37,10.0,NNW,3.5,-,N/A,,Clear,340,2013-11-04 05:55:00
1:15 AM,35.1,25.5,68,30.36,10.0,Calm,Calm,-,N/A,,Clear,0,2013-11-04 06:15:00
1:35 AM,35.6,25.3,66,30.38,10.0,Calm,Calm,-,N/A,,Clear,0,2013-11-04 06:35:00
1:55 AM,35.6,25.7,67,30.38,10.0,Calm,Calm,-,N/A,,Clear,0,2013-11-04 06:55:00
2:15 AM,34.7,25.5,69,30.38,10.0,Calm,Calm,-,N/A,,Clear,0,2013-11-04 07:15:00
2:35 AM,32.0,25.5,77,30.39,10.0,Calm,Calm,-,N/A,,Clear,0,2013-11-04 07:35:00
2:55 AM,32.0,26.1,79,30.38,10.0,Calm,Calm,-,N/A,,Clear,0,2013-11-04 07:55:00
3:15 AM,32.0,25.9,78,30.38,10.0,Calm,Calm,-,N/A,,Clear,0,2013-11-04 08:15:00
3:35 AM,33.8,26.1,73,30.39,10.0,Calm,Calm,-,N/A,,Clear,0,2013-11-04 08:35:00
3:55 AM,32.5,26.1,77,30.38,10.0,South,3.5,-,N/A,,Clear,190,2013-11-04 08:55:00
4:15 AM,34.7,25.9,70,30.39,10.0,Calm,Calm,-,N/A,,Clear,0,2013-11-04 09:15:00
4:35 AM,35.2,25.7,68,30.39,10.0,Calm,Calm,-,N/A,,Clear,0,2013-11-04 09:35:00
4:55 AM,35.2,25.5,68,30.39,10.0,Calm,Calm,-,N/A,,Clear,0,2013-11-04 09:55:00
5:15 AM,34.3,25.5,70,30.40,10.0,Calm,Calm,-,N/A,,Clear,0,2013-11-04 10:15:00
5:35 AM,34.7,25.3,69,30.41,10.0,Calm,Calm,-,N/A,,Clear,0,2013-11-04 10:35:00
5:55 AM,34.9,24.8,67,30.42,10.0,Calm,Calm,-,N/A,,Clear,0,2013-11-04 10:55:00
6:15 AM,35.1,24.4,65,30.43,10.0,Calm,Calm,-,N/A,,Clear,0,2013-11-04 11:15:00
6:35 AM,34.9,23.9,64,30.43,10.0,Calm,Calm,-,N/A,,Clear,0,2013-11-04 11:35:00
6:55 AM,34.2,24.1,67,30.44,10.0,Calm,Calm,-,N/A,,Clear,0,2013-11-04 11:55:00
7:15 AM,34.5,23.4,64,30.44,10.0,Calm,Calm,-,N/A,,Clear,0,2013-11-04 12:15:00
7:35 AM,34.9,23.4,63,30.45,10.0,Calm,Calm,-,N/A,,Clear,0,2013-11-04 12:35:00
7:55 AM,33.6,25.2,71,30.46,10.0,Calm,Calm,-,N/A,,Clear,0,2013-11-04 12:55:00
8:15 AM,34.5,24.8,68,30.46,10.0,South,3.5,-,N/A,,Clear,170,2013-11-04 13:15:00
8:35 AM,35.8,24.1,62,30.48,10.0,Calm,Calm,-,N/A,,Clear,0,2013-11-04 13:35:00
8:55 AM,36.5,23.4,59,30.47,10.0,South,3.5,-,N/A,,Clear,190,2013-11-04 13:55:00
9:15 AM,36.7,24.1,60,30.48,10.0,Calm,Calm,-,N/A,,Clear,0,2013-11-04 14:15:00
9:35 AM,38.7,23.2,54,30.48,10.0,SSE,3.5,-,N/A,,Clear,150,2013-11-04 14:35:00
9:55 AM,39.2,22.1,50,30.48,10.0,SE,3.5,-,N/A,,Clear,140,2013-11-04 14:55:00
10:15 AM,41.2,21.7,46,30.48,10.0,SSE,4.6,-,N/A,,Clear,150,2013-11-04 15:15:00
10:35 AM,42.1,21.9,45,30.48,10.0,SE,4.6,-,N/A,,Clear,140,2013-11-04 15:35:00
10:55 AM,42.6,20.3,41,30.48,10.0,South,5.8,-,N/A,,Clear,180,2013-11-04 15:55:00
11:15 AM,42.6,19.8,40,30.47,10.0,SE,4.6,-,N/A,,Clear,130,2013-11-04 16:15:00
11:35 AM,44.1,19.4,37,30.46,10.0,SE,4.6,-,N/A,,Clear,140,2013-11-04 16:35:00
11:55 AM,44.8,20.1,37,30.47,10.0,South,3.5,-,N/A,,Clear,180,2013-11-04 16:55:00
12:15 PM,44.8,19.4,36,30.46,10.0,SE,6.9,-,N/A,,Clear,130,2013-11-04 17:15:00
12:35 PM,45.7,21.2,38,30.46,10.0,SSE,3.5,-,N/A,,Clear,160,2013-11-04 17:35:00
12:55 PM,45.7,21.2,38,30.45,10.0,ESE,4.6,-,N/A,,Clear,110,2013-11-04 17:55:00
1:15 PM,46.6,21.2,37,30.43,10.0,SSE,3.5,-,N/A,,Clear,160,2013-11-04 18:15:00
1:35 PM,48.2,21.7,35,30.43,10.0,ESE,6.9,-,N/A,,Clear,120,2013-11-04 18:35:00
1:55 PM,47.1,21.9,37,30.44,10.0,SE,5.8,-,N/A,,Clear,130,2013-11-04 18:55:00
2:15 PM,46.4,21.9,38,30.43,10.0,SE,4.6,-,N/A,,Clear,140,2013-11-04 19:15:00
2:35 PM,46.8,21.2,36,30.43,10.0,SE,3.5,-,N/A,,Clear,130,2013-11-04 19:35:00
2:55 PM,46.8,22.5,38,30.43,10.0,SE,3.5,-,N/A,,Clear,140,2013-11-04 19:55:00
3:15 PM,46.8,21.9,37,30.42,10.0,ESE,6.9,-,N/A,,Clear,120,2013-11-04 20:15:00
3:35 PM,46.2,21.4,37,30.43,10.0,ESE,4.6,-,N/A,,Clear,120,2013-11-04 20:35:00
3:55 PM,46.0,22.1,39,30.43,10.0,SE,5.8,-,N/A,,Clear,140,2013-11-04 20:55:00
4:15 PM,45.0,22.6,41,30.42,10.0,SE,5.8,-,N/A,,Clear,140,2013-11-04 21:15:00
4:35 PM,44.1,22.5,42,30.43,10.0,ESE,5.8,-,N/A,,Clear,120,2013-11-04 21:35:00
4:55 PM,43.7,22.5,43,30.43,10.0,SE,3.5,-,N/A,,Clear,140,2013-11-04 21:55:00
5:15 PM,43.0,23.0,45,30.43,10.0,SE,5.8,-,N/A,,Clear,140,2013-11-04 22:15:00
5:35 PM,42.4,23.2,47,30.43,10.0,SSE,3.5,-,N/A,,Clear,150,2013-11-04 22:35:00
5:55 PM,41.0,23.7,50,30.44,10.0,SSE,3.5,-,N/A,,Clear,160,2013-11-04 22:55:00
6:15 PM,40.5,23.9,52,30.43,10.0,Calm,Calm,-,N/A,,Clear,0,2013-11-04 23:15:00
6:35 PM,40.1,23.9,52,30.44,10.0,Calm,Calm,-,N/A,,Clear,0,2013-11-04 23:35:00
6:55 PM,39.6,23.9,54,30.45,10.0,Calm,Calm,-,N/A,,Clear,0,2013-11-04 23:55:00
7:15 PM,39.4,24.3,55,30.46,10.0,Calm,Calm,-,N/A,,Clear,0,2013-11-05 00:15:00
7:35 PM,38.8,24.4,56,30.45,10.0,Calm,Calm,-,N/A,,Clear,0,2013-11-05 00:35:00
7:55 PM,39.0,24.6,56,30.46,10.0,Calm,Calm,-,N/A,,Clear,0,2013-11-05 00:55:00
8:15 PM,37.6,25.5,62,30.45,10.0,SSE,3.5,-,N/A,,Clear,150,2013-11-05 01:15:00
8:35 PM,37.6,25.2,61,30.46,10.0,Calm,Calm,-,N/A,,Clear,0,2013-11-05 01:35:00
8:55 PM,37.8,25.2,60,30.47,10.0,Calm,Calm,-,N/A,,Clear,0,2013-11-05 01:55:00
9:15 PM,36.7,25.5,64,30.46,10.0,Calm,Calm,-,N/A,,Clear,0,2013-11-05 02:15:00
9:35 PM,36.5,25.5,64,30.47,10.0,South,3.5,-,N/A,,Clear,180,2013-11-05 02:35:00
9:55 PM,36.5,25.7,65,30.48,10.0,Calm,Calm,-,N/A,,Clear,0,2013-11-05 02:55:00
10:15 PM,36.7,25.9,65,30.47,10.0,Calm,Calm,-,N/A,,Clear,0,2013-11-05 03:15:00
10:35 PM,36.7,25.3,64,30.48,10.0,Calm,Calm,-,N/A,,Clear,0,2013-11-05 03:35:00
10:55 PM,36.0,25.9,67,30.47,10.0,Calm,Calm,-,N/A,,Clear,0,2013-11-05 03:55:00
11:15 PM,36.3,25.7,65,30.47,10.0,Calm,Calm,-,N/A,,Clear,0,2013-11-05 04:15:00
11:35 PM,35.8,26.2,68,30.47,10.0,Calm,Calm,-,N/A,,Clear,0,2013-11-05 04:35:00
11:55 PM,35.6,25.7,67,30.48,10.0,Calm,Calm,-,N/A,,Clear,0,2013-11-05 04:55:00